Weather History for Ashland, WI

Change the Weather History Date:

Sunday, January 20, 2013

  Actual Average Record
Temperature  
Mean Temperature 0 °F -  
Max Temperature 3 °F 24 °F 46 °F (1968)
Min Temperature -5 °F 1 °F -28 °F (1984)
Degree Days  
Heating Degree Days 64    
Moisture  
Dew Point -8 °F    
Average Humidity 69    
Maximum Humidity 83    
Minimum Humidity 60    
Precipitation  
Precipitation 0.00 in - - ()
Sea Level Pressure  
Sea Level Pressure 30.27 in    
Wind  
Wind Speed 10 mph (West)    
Max Wind Speed 14 mph    
Max Gust Speed 23 mph    
Visibility 9 miles    
Events      
Averages and records for this station are not official NWS values.
T = Trace of Precipitation, MM = Missing Value Source: NWS Daily Summary

Daily Weather History Graph

Daily Weather History Graph

Search for Another Location

Airport:

Trip Planner

Search our weather history database for the weather conditions in past years. The results will help you decide how hot, cold, wet, or windy it might be!

Date:

Astronomy

Jan. 20, 2013 Rise Set
Actual Time 7:39 AM CST 4:50 PM CST
Civil Twilight 7:06 AM CST 5:23 PM CST
Nautical Twilight 6:29 AM CST 6:00 PM CST
Astronomical Twilight 5:53 AM CST 6:36 PM CST
Moon 11:52 AM CST (1/20) 2:10 AM CST (1/20)
Length of Visible Light 10h 17m
Length of Day
9h 10m
Waxing Gibbous, 66% of the Moon is Illuminated
Jan 20
Waxing Gibbous
Jan 26
Full
Feb 3
Last Quarter
Feb 10
New
Feb 17
First Quarter

Hourly Weather History & Observations

Time (CST) Temp. Windchill Dew Point Humidity Pressure Visibility Wind Dir Wind Speed Gust Speed Precip Events Conditions
12:53 AM 1.9 °F -15.5 °F -5.1 °F 72% 30.14 in 10.0 mi NW 12.7 mph 19.6 mph N/A   Overcast
1:53 AM 1.9 °F -11.8 °F -5.1 °F 72% 30.18 in 7.0 mi NW 8.1 mph - N/A   Overcast
2:53 AM 1.0 °F -14.9 °F -6.0 °F 72% 30.21 in 6.0 mi NW 10.4 mph 23.0 mph N/A   Haze
3:53 AM 1.0 °F -16.6 °F -6.0 °F 72% 30.23 in 5.0 mi WNW 12.7 mph - N/A   Haze
4:37 AM -2.2 °F -16.8 °F -7.6 °F 78% 30.19 in 10.0 mi West 8.1 mph - N/A   Scattered Clouds
4:53 AM -2.9 °F -18.8 °F -8.0 °F 79% 30.26 in 10.0 mi West 9.2 mph - N/A   Clear
5:53 AM -2.9 °F -18.8 °F -9.0 °F 75% 30.28 in 10.0 mi West 9.2 mph - N/A   Clear
6:53 AM -0.9 °F -16.4 °F -8.0 °F 72% 30.30 in 10.0 mi West 9.2 mph - N/A   Clear
7:53 AM -2.0 °F -13.9 °F -8.0 °F 76% 30.32 in 10.0 mi West 5.8 mph - N/A   Partly Cloudy
8:53 AM -2.0 °F -17.7 °F -9.0 °F 72% 30.33 in 10.0 mi West 9.2 mph - N/A   Mostly Cloudy
9:53 AM -0.0 °F -17.1 °F -8.0 °F 69% 30.34 in 10.0 mi West 11.5 mph - N/A   Clear
10:53 AM 1.9 °F -16.2 °F -7.1 °F 66% 30.35 in 10.0 mi West 13.8 mph - N/A   Clear
11:53 AM 1.9 °F -16.2 °F -8.0 °F 63% 30.35 in 10.0 mi West 13.8 mph 18.4 mph N/A   Overcast
12:53 PM 3.0 °F -12.5 °F -7.1 °F 63% 30.32 in 10.0 mi West 10.4 mph - N/A   Overcast
1:53 PM 1.9 °F -13.8 °F -8.0 °F 63% 30.32 in 9.0 mi WSW 10.4 mph - N/A   Overcast
2:53 PM 3.0 °F -11.5 °F -8.0 °F 60% 30.30 in 10.0 mi West 9.2 mph - N/A   Mostly Cloudy
3:53 PM 1.9 °F -11.8 °F -9.0 °F 60% 30.30 in 10.0 mi WSW 8.1 mph - N/A   Scattered Clouds
4:53 PM -0.0 °F -13.0 °F -9.0 °F 66% 30.30 in 10.0 mi WSW 6.9 mph - N/A   Scattered Clouds
5:53 PM -0.0 °F -15.3 °F -9.9 °F 63% 30.28 in 10.0 mi WSW 9.2 mph - N/A   Overcast
6:53 PM -0.9 °F -16.4 °F -9.9 °F 66% 30.27 in 10.0 mi WSW 9.2 mph - N/A   Scattered Clouds
7:53 PM -0.9 °F -16.4 °F -11.0 °F 62% 30.27 in 10.0 mi WSW 9.2 mph - N/A   Partly Cloudy
8:10 PM -0.4 °F -15.7 °F -11.2 °F 60% 30.18 in 10.0 mi West 9.2 mph - N/A   Mostly Cloudy
8:53 PM -2.0 °F -16.6 °F -9.9 °F 69% 30.25 in 10.0 mi WSW 8.1 mph - N/A   Overcast
9:53 PM -2.9 °F -16.5 °F -9.9 °F 72% 30.24 in 7.0 mi WSW 6.9 mph - N/A   Overcast
10:53 PM -2.9 °F -17.7 °F -9.0 °F 75% 30.23 in 5.0 mi WSW 8.1 mph - N/A   Haze
11:53 PM -5.1 °F -19.1 °F -9.0 °F 83% 30.23 in 4.0 mi West 6.9 mph - N/A   Overcast